Tracking 18942 objects as of 18-Jan-2018
HD Live streaming from Space Station
objects crossing your sky now

COSMOS 839

Track COSMOS 839 now!
10-day predictions
COSMOS 839 is classified as:


NORAD ID: 9011
Int'l Code: 1976-067A
Perigee: 991.6 km
Apogee: 2,097.0 km
Inclination: 65.9 °
Period: 116.8 minutes
Semi major axis: 7915 km
RCS: 0.8498 m2 (medium)
Launch date: July 8, 1976
Source: Commonwealth of Independent States (former USSR) (CIS)
Launch site: PLESETSK MISSILE AND SPACE COMPLEX (PKMTR)
aabbcc
Your satellite tracking list
Your tracking list is empty




NASA's NSSDC Master Catalog

Two Line Element Set (TLE):
1  9011U 76067A   18017.54570829 -.00000030 +00000-0 +88500-4 0  9993
2  9011 065.8543 082.5874 0698230 039.0892 325.8467 12.32829496881342
Source of the keplerian elements: AFSPC